Location: Newark
(29.9790°N, 31.1340°E)
Time: 04:45:19
(UTC+00:00)

A-11 Canister half - Pass Details

Date: 02 February 2020
Orbit: 1524 x 1684 km, 47.3° (Epoch: 27 February)

Event Time Altitude Azimuth Distance (km) Brightness Sun altitude
Rises 19:42:20 0° 310° (NW) 4,733 12.0 -54.0°
Reaches altitude 10° 19:45:22 10° 311° (NW) 3,766 11.4 -54.7°
Enters shadow 19:47:59 22° 313° (NW) 2,965 10.7 -55.2°
